Kezdőlap
METAR-TAF:

METAR-TAF

Repülőterek :

Langlade County Airport

Antigo, Wisconsin, Amerikai Egyesült Államok

földrajzi szélesség: 45-09-15N, földrajzi hosszúság: 89-06-39W, magasság: 464 m

Jelenlegi meteorológiai megfigyelések

A jelentés 33 perccel ezelõtt készült, 08:35 UTC
Nyugati szél 4 kt
Hőmérséklet -13°C
Páratartalom 78%
Légköri nyomás 1016 hPa
Látótávolság: 16.1 km
Borult 4900 lábon

METAR: KAIG 270835Z AUTO 28004KT 10SM OVC049 M13/M16 A2999 RMK AO2 T11321163

Idő: 03:08 (09:08 UTC)


TAF: hiányzik

Meteorológiai megfigyelések és előrejelzések több, mint 4000 repülőtéren (METAR és TAF jelentéseket).

A térképen piros és sárga pontok jelzik az elérhető meteorológiai állomásokat.

Mozgassa az egeret a pont fölött, hogy megjelenjen az állomás neve.

Azután kattintson az időjárási megfigyelések és előrejelzések megtekintéséhez.

A térkép megváltoztatása: kattintson a fekete keresztel jelölt zöld gombra ráközelítéshez, a vonallal jelölt zöld gombra távolításhoz, vagy a zöld nyilakra a szomszédos térképek eléréséhez.


METAR-TAF: